Data supplied by UK-AIR on 5/4/2008
All Data GMT hour ending 
Status: R =Ratified P=Provisional,P*=As supplied
,,London Bloomsbury,,,,,,,,,,,,,,,,,,,,,,,
Date,time,"Carbon monoxide",status,unit,"PM10 particulate matter (Hourly measured)",status,unit,"Nitric oxide",status,unit,"Nitrogen dioxide",status,unit,"Nitrogen oxides as nitrogen dioxide",status,unit,"Ozone",status,unit,"Sulphur dioxide",status,unit
 
01-01-1993,01:00,3.1,R,mgm-3,124,R,ugm-3 (GRAV EQ),429,R,ugm-3,122,R,ugm-3,777,R,ugm-3,6,R,ugm-3,43,R,ugm-3
01-01-1993,02:00,4.1,R,mgm-3,116,R,ugm-3 (GRAV EQ),419,R,ugm-3,111,R,ugm-3,751,R,ugm-3,6,R,ugm-3,45,R,ugm-3
01-01-1993,03:00,4.5,R,mgm-3,131,R,ugm-3 (GRAV EQ),475,R,ugm-3,120,R,ugm-3,846,R,ugm-3,6,R,ugm-3,48,R,ugm-3
01-01-1993,04:00,4.2,R,mgm-3,124,R,ugm-3 (GRAV EQ),420,R,ugm-3,120,R,ugm-3,762,R,ugm-3,6,R,ugm-3,43,R,ugm-3
01-01-1993,05:00,3.8,R,mgm-3,114,R,ugm-3 (GRAV EQ),359,R,ugm-3,143,R,ugm-3,691,R,ugm-3,4,R,ugm-3,40,R,ugm-3
01-01-1993,06:00,3.2,R,mgm-3,109,R,ugm-3 (GRAV EQ),343,R,ugm-3,120,R,ugm-3,644,R,ugm-3,4,R,ugm-3,43,R,ugm-3
01-01-1993,07:00,2.7,R,mgm-3,95,R,ugm-3 (GRAV EQ),260,R,ugm-3,99,R,ugm-3,497,R,ugm-3,4,R,ugm-3,37,R,ugm-3
01-01-1993,08:00,2.8,R,mgm-3,92,R,ugm-3 (GRAV EQ),264,R,ugm-3,94,R,ugm-3,497,R,ugm-3,4,R,ugm-3,37,R,ugm-3
01-01-1993,09:00,2.7,R,mgm-3,87,R,ugm-3 (GRAV EQ),205,R,ugm-3,90,R,ugm-3,403,R,ugm-3,4,R,ugm-3,40,R,ugm-3
01-01-1993,10:00,2.6,R,mgm-3,90,R,ugm-3 (GRAV EQ),206,R,ugm-3,97,R,ugm-3,413,R,ugm-3,4,R,ugm-3,43,R,ugm-3
01-01-1993,11:00,2.2,R,mgm-3,90,R,ugm-3 (GRAV EQ),211,R,ugm-3,94,R,ugm-3,416,R,ugm-3,4,R,ugm-3,51,R,ugm-3
01-01-1993,12:00,2.1,R,mgm-3,96,R,ugm-3 (GRAV EQ),244,R,ugm-3,120,R,ugm-3,493,R,ugm-3,4,R,ugm-3,48,R,ugm-3
01-01-1993,13:00,2.1,R,mgm-3,72,R,ugm-3 (GRAV EQ),158,R,ugm-3,183,R,ugm-3,424,R,ugm-3,4,R,ugm-3,40,R,ugm-3
01-01-1993,14:00,1.6,R,mgm-3,43,R,ugm-3 (GRAV EQ),69,R,ugm-3,162,R,ugm-3,267,R,ugm-3,6,R,ugm-3,32,R,ugm-3
01-01-1993,15:00,1.9,R,mgm-3,79,R,ugm-3 (GRAV EQ),94,R,ugm-3,193,R,ugm-3,336,R,ugm-3,6,R,ugm-3,29,R,ugm-3
01-01-1993,16:00,1.5,R,mgm-3,42,R,ugm-3 (GRAV EQ),83,R,ugm-3,124,R,ugm-3,250,R,ugm-3,4,R,ugm-3,32,R,ugm-3
01-01-1993,17:00,1.4,R,mgm-3,64,R,ugm-3 (GRAV EQ),111,R,ugm-3,126,R,ugm-3,296,R,ugm-3,6,R,ugm-3,29,R,ugm-3
01-01-1993,18:00,1.7,R,mgm-3,59,R,ugm-3 (GRAV EQ),99,R,ugm-3,138,R,ugm-3,288,R,ugm-3,4,R,ugm-3,27,R,ugm-3
01-01-1993,19:00,1.7,R,mgm-3,72,R,ugm-3 (GRAV EQ),123,R,ugm-3,130,R,ugm-3,317,R,ugm-3,6,R,ugm-3,21,R,ugm-3
01-01-1993,20:00,1.9,R,mgm-3,82,R,ugm-3 (GRAV EQ),140,R,ugm-3,109,R,ugm-3,323,R,ugm-3,4,R,ugm-3,19,R,ugm-3
01-01-1993,21:00,1.9,R,mgm-3,82,R,ugm-3 (GRAV EQ),175,R,ugm-3,71,R,ugm-3,338,R,ugm-3,4,R,ugm-3,24,R,ugm-3
01-01-1993,22:00,2.1,R,mgm-3,79,R,ugm-3 (GRAV EQ),195,R,ugm-3,82,R,ugm-3,380,R,ugm-3,4,R,ugm-3,21,R,ugm-3
01-01-1993,23:00,2.2,R,mgm-3,61,R,ugm-3 (GRAV EQ),151,R,ugm-3,92,R,ugm-3,323,R,ugm-3,4,R,ugm-3,27,R,ugm-3
01-01-1993,24:00,1.9,R,mgm-3,46,R,ugm-3 (GRAV EQ),108,R,ugm-3,109,R,ugm-3,273,R,ugm-3,4,R,ugm-3,69,R,ugm-3
02-01-1993,01:00,1.5,R,mgm-3,39,R,ugm-3 (GRAV EQ),66,R,ugm-3,76,R,ugm-3,178,R,ugm-3,4,R,ugm-3,77,R,ugm-3
02-01-1993,02:00,0.9,R,mgm-3,46,R,ugm-3 (GRAV EQ),101,R,ugm-3,80,R,ugm-3,235,R,ugm-3,6,R,ugm-3,117,R,ugm-3
02-01-1993,03:00,0.9,R,mgm-3,40,R,ugm-3 (GRAV EQ),53,R,ugm-3,90,R,ugm-3,170,R,ugm-3,6,R,ugm-3,96,R,ugm-3
02-01-1993,04:00,0.6,R,mgm-3,38,R,ugm-3 (GRAV EQ),25,R,ugm-3,90,R,ugm-3,128,R,ugm-3,10,R,ugm-3,77,R,ugm-3
02-01-1993,05:00,0.6,R,mgm-3,39,R,ugm-3 (GRAV EQ),29,R,ugm-3,80,R,ugm-3,124,R,ugm-3,8,R,ugm-3,53,R,ugm-3
02-01-1993,06:00,0.7,R,mgm-3,43,R,ugm-3 (GRAV EQ),35,R,ugm-3,67,R,ugm-3,120,R,ugm-3,4,R,ugm-3,43,R,ugm-3
02-01-1993,07:00,0.8,R,mgm-3,52,R,ugm-3 (GRAV EQ),56,R,ugm-3,65,R,ugm-3,151,R,ugm-3,4,R,ugm-3,59,R,ugm-3
02-01-1993,08:00,0.8,R,mgm-3,57,R,ugm-3 (GRAV EQ),74,R,ugm-3,74,R,ugm-3,187,R,ugm-3,6,R,ugm-3,48,R,ugm-3
02-01-1993,09:00,0.9,R,mgm-3,68,R,ugm-3 (GRAV EQ),108,R,ugm-3,73,R,ugm-3,237,R,ugm-3,6,R,ugm-3,37,R,ugm-3
02-01-1993,10:00,0.9,R,mgm-3,74,R,ugm-3 (GRAV EQ),113,R,ugm-3,84,R,ugm-3,256,R,ugm-3,6,R,ugm-3,37,R,ugm-3
02-01-1993,11:00,1.0,R,mgm-3,73,R,ugm-3 (GRAV EQ),86,R,ugm-3,103,R,ugm-3,235,R,ugm-3,6,R,ugm-3,37,R,ugm-3
02-01-1993,12:00,1.2,R,mgm-3,73,R,ugm-3 (GRAV EQ),89,R,ugm-3,97,R,ugm-3,233,R,ugm-3,6,R,ugm-3,51,R,ugm-3
02-01-1993,13:00,1.2,R,mgm-3,74,R,ugm-3 (GRAV EQ),98,R,ugm-3,117,R,ugm-3,265,R,ugm-3,8,R,ugm-3,53,R,ugm-3
02-01-1993,14:00,1.4,R,mgm-3,81,R,ugm-3 (GRAV EQ),108,R,ugm-3,151,R,ugm-3,315,R,ugm-3,6,R,ugm-3,59,R,ugm-3
02-01-1993,15:00,1.5,R,mgm-3,85,R,ugm-3 (GRAV EQ),133,R,ugm-3,128,R,ugm-3,330,R,ugm-3,6,R,ugm-3,64,R,ugm-3
02-01-1993,16:00,1.5,R,mgm-3,82,R,ugm-3 (GRAV EQ),136,R,ugm-3,96,R,ugm-3,304,R,ugm-3,6,R,ugm-3,61,R,ugm-3
02-01-1993,17:00,1.4,R,mgm-3,82,R,ugm-3 (GRAV EQ),149,R,ugm-3,84,R,ugm-3,311,R,ugm-3,6,R,ugm-3,72,R,ugm-3
02-01-1993,18:00,1.4,R,mgm-3,96,R,ugm-3 (GRAV EQ),123,R,ugm-3,92,R,ugm-3,279,R,ugm-3,6,R,ugm-3,74,R,ugm-3
02-01-1993,19:00,1.2,R,mgm-3,77,R,ugm-3 (GRAV EQ),111,R,ugm-3,80,R,ugm-3,250,R,ugm-3,6,R,ugm-3,106,R,ugm-3
02-01-1993,20:00,1.4,R,mgm-3,62,R,ugm-3 (GRAV EQ),134,R,ugm-3,96,R,ugm-3,300,R,ugm-3,6,R,ugm-3,128,R,ugm-3
02-01-1993,21:00,1.2,R,mgm-3,65,R,ugm-3 (GRAV EQ),139,R,ugm-3,84,R,ugm-3,296,R,ugm-3,6,R,ugm-3,136,R,ugm-3
02-01-1993,22:00,1.2,R,mgm-3,59,R,ugm-3 (GRAV EQ),116,R,ugm-3,80,R,ugm-3,258,R,ugm-3,6,R,ugm-3,112,R,ugm-3
02-01-1993,23:00,1.5,R,mgm-3,62,R,ugm-3 (GRAV EQ),118,R,ugm-3,78,R,ugm-3,258,R,ugm-3,6,R,ugm-3,98,R,ugm-3
02-01-1993,24:00,1.4,R,mgm-3,62,R,ugm-3 (GRAV EQ),110,R,ugm-3,76,R,ugm-3,244,R,ugm-3,4,R,ugm-3,72,R,ugm-3
03-01-1993,01:00,1.4,R,mgm-3,61,R,ugm-3 (GRAV EQ),103,R,ugm-3,86,R,ugm-3,243,R,ugm-3,6,R,ugm-3,67,R,ugm-3
03-01-1993,02:00,1.4,R,mgm-3,55,R,ugm-3 (GRAV EQ),108,R,ugm-3,78,R,ugm-3,243,R,ugm-3,6,R,ugm-3,72,R,ugm-3
03-01-1993,03:00,1.4,R,mgm-3,55,R,ugm-3 (GRAV EQ),114,R,ugm-3,71,R,ugm-3,244,R,ugm-3,6,R,ugm-3,77,R,ugm-3
03-01-1993,04:00,1.3,R,mgm-3,53,R,ugm-3 (GRAV EQ),106,R,ugm-3,71,R,ugm-3,233,R,ugm-3,6,R,ugm-3,85,R,ugm-3
03-01-1993,05:00,1.3,R,mgm-3,53,R,ugm-3 (GRAV EQ),119,R,ugm-3,71,R,ugm-3,252,R,ugm-3,6,R,ugm-3,90,R,ugm-3
03-01-1993,06:00,1.3,R,mgm-3,57,R,ugm-3 (GRAV EQ),133,R,ugm-3,69,R,ugm-3,271,R,ugm-3,6,R,ugm-3,106,R,ugm-3
03-01-1993,07:00,1.3,R,mgm-3,57,R,ugm-3 (GRAV EQ),145,R,ugm-3,71,R,ugm-3,292,R,ugm-3,6,R,ugm-3,85,R,ugm-3
03-01-1993,08:00,1.4,R,mgm-3,59,R,ugm-3 (GRAV EQ),179,R,ugm-3,73,R,ugm-3,346,R,ugm-3,6,R,ugm-3,82,R,ugm-3
03-01-1993,09:00,1.6,R,mgm-3,61,R,ugm-3 (GRAV EQ),213,R,ugm-3,80,R,ugm-3,405,R,ugm-3,6,R,ugm-3,88,R,ugm-3
03-01-1993,10:00,1.6,R,mgm-3,69,R,ugm-3 (GRAV EQ),205,R,ugm-3,84,R,ugm-3,397,R,ugm-3,6,R,ugm-3,90,R,ugm-3
03-01-1993,11:00,1.3,R,mgm-3,43,R,ugm-3 (GRAV EQ),73,R,ugm-3,132,R,ugm-3,243,R,ugm-3,6,R,ugm-3,69,R,ugm-3
03-01-1993,12:00,1.5,R,mgm-3,47,R,ugm-3 (GRAV EQ),86,R,ugm-3,126,R,ugm-3,258,R,ugm-3,6,R,ugm-3,61,R,ugm-3
03-01-1993,13:00,1.4,R,mgm-3,29,R,ugm-3 (GRAV EQ),69,R,ugm-3,109,R,ugm-3,214,R,ugm-3,8,R,ugm-3,48,R,ugm-3
03-01-1993,14:00,1.2,R,mgm-3,20,R,ugm-3 (GRAV EQ),29,R,ugm-3,143,R,ugm-3,187,R,ugm-3,12,R,ugm-3,35,R,ugm-3
03-01-1993,15:00,1.0,R,mgm-3,38,R,ugm-3 (GRAV EQ),35,R,ugm-3,124,R,ugm-3,178,R,ugm-3,12,R,ugm-3,32,R,ugm-3
03-01-1993,16:00,1.2,R,mgm-3,39,R,ugm-3 (GRAV EQ),54,R,ugm-3,126,R,ugm-3,208,R,ugm-3,10,R,ugm-3,35,R,ugm-3
03-01-1993,17:00,1.0,R,mgm-3,26,R,ugm-3 (GRAV EQ),38,R,ugm-3,113,R,ugm-3,170,R,ugm-3,10,R,ugm-3,27,R,ugm-3
03-01-1993,18:00,0.9,R,mgm-3,29,R,ugm-3 (GRAV EQ),48,R,ugm-3,103,R,ugm-3,176,R,ugm-3,10,R,ugm-3,24,R,ugm-3
03-01-1993,19:00,1.3,R,mgm-3,26,R,ugm-3 (GRAV EQ),59,R,ugm-3,105,R,ugm-3,195,R,ugm-3,8,R,ugm-3,27,R,ugm-3
03-01-1993,20:00,1.3,R,mgm-3,35,R,ugm-3 (GRAV EQ),89,R,ugm-3,97,R,ugm-3,233,R,ugm-3,6,R,ugm-3,32,R,ugm-3
03-01-1993,21:00,1.3,R,mgm-3,39,R,ugm-3 (GRAV EQ),85,R,ugm-3,103,R,ugm-3,233,R,ugm-3,6,R,ugm-3,35,R,ugm-3
03-01-1993,22:00,1.2,R,mgm-3,51,R,ugm-3 (GRAV EQ),69,R,ugm-3,113,R,ugm-3,218,R,ugm-3,6,R,ugm-3,29,R,ugm-3
03-01-1993,23:00,0.9,R,mgm-3,49,R,ugm-3 (GRAV EQ),34,R,ugm-3,101,R,ugm-3,153,R,ugm-3,10,R,ugm-3,24,R,ugm-3
03-01-1993,24:00,1.3,R,mgm-3,36,R,ugm-3 (GRAV EQ),20,R,ugm-3,78,R,ugm-3,109,R,ugm-3,14,R,ugm-3,21,R,ugm-3
04-01-1993,01:00,1.0,R,mgm-3,38,R,ugm-3 (GRAV EQ),15,R,ugm-3,61,R,ugm-3,84,R,ugm-3,18,R,ugm-3,24,R,ugm-3
04-01-1993,02:00,0.8,R,mgm-3,42,R,ugm-3 (GRAV EQ),11,R,ugm-3,50,R,ugm-3,67,R,ugm-3,20,R,ugm-3,21,R,ugm-3
04-01-1993,03:00,0.7,R,mgm-3,49,R,ugm-3 (GRAV EQ),10,R,ugm-3,57,R,ugm-3,73,R,ugm-3,20,R,ugm-3,27,R,ugm-3
04-01-1993,04:00,0.6,R,mgm-3,52,R,ugm-3 (GRAV EQ),16,R,ugm-3,63,R,ugm-3,88,R,ugm-3,16,R,ugm-3,35,R,ugm-3
04-01-1993,05:00,0.6,R,mgm-3,55,R,ugm-3 (GRAV EQ),18,R,ugm-3,67,R,ugm-3,94,R,ugm-3,16,R,ugm-3,35,R,ugm-3
04-01-1993,06:00,0.6,R,mgm-3,52,R,ugm-3 (GRAV EQ),21,R,ugm-3,63,R,ugm-3,96,R,ugm-3,16,R,ugm-3,32,R,ugm-3
04-01-1993,07:00,0.7,R,mgm-3,48,R,ugm-3 (GRAV EQ),26,R,ugm-3,71,R,ugm-3,111,R,ugm-3,18,R,ugm-3,24,R,ugm-3
04-01-1993,08:00,0.9,R,mgm-3,56,R,ugm-3 (GRAV EQ),54,R,ugm-3,99,R,ugm-3,181,R,ugm-3,10,R,ugm-3,21,R,ugm-3
04-01-1993,09:00,1.0,R,mgm-3,52,R,ugm-3 (GRAV EQ),73,R,ugm-3,105,R,ugm-3,216,R,ugm-3,8,R,ugm-3,19,R,ugm-3
04-01-1993,10:00,1.2,R,mgm-3,53,R,ugm-3 (GRAV EQ),91,R,ugm-3,103,R,ugm-3,243,R,ugm-3,6,R,ugm-3,16,R,ugm-3
04-01-1993,11:00,1.2,R,mgm-3,55,R,ugm-3 (GRAV EQ),96,R,ugm-3,113,R,ugm-3,260,R,ugm-3,6,R,ugm-3,16,R,ugm-3
04-01-1993,12:00,1.2,R,mgm-3,61,R,ugm-3 (GRAV EQ),118,R,ugm-3,109,R,ugm-3,288,R,ugm-3,4,R,ugm-3,16,R,ugm-3
04-01-1993,13:00,,,,70,R,ugm-3 (GRAV EQ),,,,,,,,,,,,,,,
04-01-1993,14:00,,,,,,,,,,,,,,,,,,,,,
04-01-1993,15:00,,,,,,,,,,,,,,,,,,,,,
04-01-1993,16:00,,,,,,,,,,,,,,,,,,,,,
04-01-1993,17:00,,,,,,,,,,,,,,,,,,,,,
04-01-1993,18:00,,,,,,,,,,,,,,,,,,,,,
04-01-1993,19:00,,,,,,,,,,,,,,,,,,,,,
04-01-1993,20:00,,,,,,,,,,,,,,,,,,,,,
04-01-1993,21:00,,,,,,,,,,,,,,,,,,,,,
04-01-1993,22:00,,,,,,,,,,,,,,,,,,,,,
04-01-1993,23:00,,,,,,,,,,,,,,,,,,,,,
04-01-1993,24:00,,,,,,,,,,,,,,,,,,,,,
05-01-1993,01:00,,,,,,,,,,,,,,,,,,,,,
05-01-1993,02:00,,,,,,,,,,,,,,,,,,,,,
05-01-1993,03:00,,,,,,,,,,,,,,,,,,,,,
05-01-1993,04:00,,,,,,,,,,,,,,,,,,,,,
05-01-1993,05:00,,,,,,,,,,,,,,,,,,,,,
05-01-1993,06:00,,,,,,,,,,,,,,,,,,,,,
05-01-1993,07:00,,,,,,,,,,,,,,,,,,,,,
05-01-1993,08:00,,,,,,,,,,,,,,,,,,,,,
05-01-1993,09:00,,,,,,,,,,,,,,,,,,,,,
05-01-1993,10:00,,,,,,,,,,,,,,,,,,,,,
05-01-1993,11:00,,,,,,,,,,,,,,,,,,,,,
05-01-1993,12:00,,,,,,,,,,,,,,,,,,,,,
05-01-1993,13:00,,,,,,,,,,,,,,,,,,,,,
05-01-1993,14:00,,,,,,,,,,,,,,,,,,,,,
05-01-1993,15:00,,,,,,,,,,,,,,,,,,,,,
05-01-1993,16:00,,,,,,,,,,,,,,,,,,,,,
05-01-1993,17:00,,,,,,,,,,,,,,,,,,,,,
05-01-1993,18:00,,,,,,,,,,,,,,,,,,,,,
05-01-1993,19:00,,,,,,,,,,,,,,,,,,,,,
05-01-1993,20:00,,,,,,,,,,,,,,,,,,,,,
05-01-1993,21:00,,,,,,,,,,,,,,,,,,,,,
05-01-1993,22:00,,,,,,,,,,,,,,,,,,,,,
05-01-1993,23:00,,,,,,,,,,,,,,,,,,,,,
05-01-1993,24:00,,,,,,,,,,,,,,,,,,,,,
06-01-1993,01:00,,,,,,,,,,,,,,,,,,,,,
06-01-1993,02:00,,,,,,,,,,,,,,,,,,,,,
06-01-1993,03:00,,,,,,,,,,,,,,,,,,,,,
06-01-1993,04:00,,,,,,,,,,,,,,,,,,,,,
06-01-1993,05:00,,,,,,,,,,,,,,,,,,,,,
06-01-1993,06:00,,,,,,,,,,,,,,,,,,,,,
06-01-1993,07:00,,,,,,,,,,,,,,,,,,,,,
06-01-1993,08:00,,,,,,,,,,,,,,,,,,,,,
06-01-1993,09:00,,,,,,,,,,,,,,,,,,,,,
06-01-1993,10:00,,,,,,,,,,,,,,,,,,,,,
06-01-1993,11:00,,,,,,,,,,,,,,,,,,,,,
06-01-1993,12:00,,,,,,,,,,,,,,,,,,,,,
06-01-1993,13:00,,,,,,,,,,,,,,,,,,,,,
06-01-1993,14:00,,,,,,,,,,,,,,,,,,,,,
06-01-1993,15:00,,,,,,,,,,,,,,,,,,,,,
06-01-1993,16:00,,,,,,,,,,,,,,,,,,,,,
06-01-1993,17:00,,,,,,,,,,,,,,,,,,,,,
06-01-1993,18:00,,,,,,,,,,,,,,,,,,,,,
06-01-1993,19:00,,,,,,,,,,,,,,,,,,,,,
06-01-1993,20:00,,,,,,,,,,,,,,,,,,,,,
06-01-1993,21:00,,,,,,,,,,,,,,,,,,,,,
06-01-1993,22:00,,,,,,,,,,,,,,,,,,,,,
06-01-1993,23:00,,,,,,,,,,,,,,,,,,,,,
06-01-1993,24:00,,,,,,,,,,,,,,,,,,,,,
07-01-1993,01:00,,,,,,,,,,,,,,,,,,,,,
07-01-1993,02:00,,,,,,,,,,,,,,,,,,,,,
07-01-1993,03:00,,,,,,,,,,,,,,,,,,,,,
07-01-1993,04:00,,,,,,,,,,,,,,,,,,,,,
07-01-1993,05:00,,,,,,,,,,,,,,,,,,,,,
07-01-1993,06:00,,,,,,,,,,,,,,,,,,,,,
07-01-1993,07:00,,,,,,,,,,,,,,,,,,,,,
07-01-1993,08:00,,,,,,,,,,,,,,,,,,,,,
07-01-1993,09:00,,,,,,,,,,,,,,,,,,,,,
07-01-1993,10:00,,,,,,,,,,,,,,,,,,,,,
07-01-1993,11:00,,,,,,,,,,,,,,,,,,,,,
07-01-1993,12:00,,,,73,R,ugm-3 (GRAV EQ),,,,,,,,,,,,,,,
07-01-1993,13:00,,,,62,R,ugm-3 (GRAV EQ),,,,,,,,,,,,,,,
07-01-1993,14:00,,,,22,R,ugm-3 (GRAV EQ),,,,,,,,,,,,,,,
07-01-1993,15:00,,,,34,R,ugm-3 (GRAV EQ),,,,,,,,,,,,,,,
07-01-1993,16:00,1.7,R,mgm-3,25,R,ugm-3 (GRAV EQ),103,R,ugm-3,69,R,ugm-3,225,R,ugm-3,,,,21,R,ugm-3
07-01-1993,17:00,1.4,R,mgm-3,22,R,ugm-3 (GRAV EQ),89,R,ugm-3,71,R,ugm-3,206,R,ugm-3,4,R,ugm-3,19,R,ugm-3
07-01-1993,18:00,1.4,R,mgm-3,20,R,ugm-3 (GRAV EQ),79,R,ugm-3,76,R,ugm-3,197,R,ugm-3,4,R,ugm-3,16,R,ugm-3
07-01-1993,19:00,1.2,R,mgm-3,16,R,ugm-3 (GRAV EQ),48,R,ugm-3,76,R,ugm-3,149,R,ugm-3,4,R,ugm-3,13,R,ugm-3
07-01-1993,20:00,0.9,R,mgm-3,13,R,ugm-3 (GRAV EQ),35,R,ugm-3,73,R,ugm-3,126,R,ugm-3,6,R,ugm-3,16,R,ugm-3
07-01-1993,21:00,0.7,R,mgm-3,14,R,ugm-3 (GRAV EQ),18,R,ugm-3,61,R,ugm-3,88,R,ugm-3,12,R,ugm-3,8,R,ugm-3
07-01-1993,22:00,0.6,R,mgm-3,22,R,ugm-3 (GRAV EQ),9,R,ugm-3,55,R,ugm-3,69,R,ugm-3,18,R,ugm-3,5,R,ugm-3
07-01-1993,23:00,0.6,R,mgm-3,23,R,ugm-3 (GRAV EQ),10,R,ugm-3,52,R,ugm-3,67,R,ugm-3,22,R,ugm-3,8,R,ugm-3
07-01-1993,24:00,0.5,R,mgm-3,23,R,ugm-3 (GRAV EQ),6,R,ugm-3,46,R,ugm-3,55,R,ugm-3,30,R,ugm-3,5,R,ugm-3
08-01-1993,01:00,0.6,R,mgm-3,21,R,ugm-3 (GRAV EQ),1,R,ugm-3,32,R,ugm-3,34,R,ugm-3,36,R,ugm-3,11,R,ugm-3
08-01-1993,02:00,0.6,R,mgm-3,12,R,ugm-3 (GRAV EQ),3,R,ugm-3,23,R,ugm-3,27,R,ugm-3,46,R,ugm-3,61,R,ugm-3
08-01-1993,03:00,0.6,R,mgm-3,26,R,ugm-3 (GRAV EQ),4,R,ugm-3,29,R,ugm-3,34,R,ugm-3,40,R,ugm-3,90,R,ugm-3
08-01-1993,04:00,0.6,R,mgm-3,30,R,ugm-3 (GRAV EQ),5,R,ugm-3,34,R,ugm-3,42,R,ugm-3,32,R,ugm-3,106,R,ugm-3
08-01-1993,05:00,0.6,R,mgm-3,33,R,ugm-3 (GRAV EQ),5,R,ugm-3,44,R,ugm-3,52,R,ugm-3,28,R,ugm-3,101,R,ugm-3
08-01-1993,06:00,0.5,R,mgm-3,34,R,ugm-3 (GRAV EQ),6,R,ugm-3,46,R,ugm-3,55,R,ugm-3,24,R,ugm-3,85,R,ugm-3
08-01-1993,07:00,0.6,R,mgm-3,31,R,ugm-3 (GRAV EQ),20,R,ugm-3,63,R,ugm-3,94,R,ugm-3,8,R,ugm-3,35,R,ugm-3
08-01-1993,08:00,0.9,R,mgm-3,34,R,ugm-3 (GRAV EQ),49,R,ugm-3,71,R,ugm-3,145,R,ugm-3,4,R,ugm-3,32,R,ugm-3
08-01-1993,09:00,1.0,R,mgm-3,43,R,ugm-3 (GRAV EQ),103,R,ugm-3,73,R,ugm-3,229,R,ugm-3,4,R,ugm-3,40,R,ugm-3
08-01-1993,10:00,1.3,R,mgm-3,49,R,ugm-3 (GRAV EQ),125,R,ugm-3,74,R,ugm-3,265,R,ugm-3,6,R,ugm-3,40,R,ugm-3
08-01-1993,11:00,0.9,R,mgm-3,48,R,ugm-3 (GRAV EQ),111,R,ugm-3,78,R,ugm-3,248,R,ugm-3,6,R,ugm-3,35,R,ugm-3
08-01-1993,12:00,1.0,R,mgm-3,52,R,ugm-3 (GRAV EQ),79,R,ugm-3,73,R,ugm-3,193,R,ugm-3,8,R,ugm-3,32,R,ugm-3
08-01-1993,13:00,0.9,R,mgm-3,46,R,ugm-3 (GRAV EQ),61,R,ugm-3,74,R,ugm-3,168,R,ugm-3,10,R,ugm-3,24,R,ugm-3
08-01-1993,14:00,1.2,R,mgm-3,49,R,ugm-3 (GRAV EQ),45,R,ugm-3,71,R,ugm-3,139,R,ugm-3,14,R,ugm-3,29,R,ugm-3
08-01-1993,15:00,1.2,R,mgm-3,49,R,ugm-3 (GRAV EQ),43,R,ugm-3,73,R,ugm-3,138,R,ugm-3,12,R,ugm-3,53,R,ugm-3
08-01-1993,16:00,1.3,R,mgm-3,59,R,ugm-3 (GRAV EQ),39,R,ugm-3,76,R,ugm-3,136,R,ugm-3,10,R,ugm-3,24,R,ugm-3
08-01-1993,17:00,1.2,R,mgm-3,59,R,ugm-3 (GRAV EQ),75,R,ugm-3,82,R,ugm-3,197,R,ugm-3,6,R,ugm-3,29,R,ugm-3
08-01-1993,18:00,1.5,R,mgm-3,64,R,ugm-3 (GRAV EQ),123,R,ugm-3,84,R,ugm-3,271,R,ugm-3,6,R,ugm-3,37,R,ugm-3
08-01-1993,19:00,1.9,R,mgm-3,61,R,ugm-3 (GRAV EQ),154,R,ugm-3,84,R,ugm-3,319,R,ugm-3,6,R,ugm-3,43,R,ugm-3
08-01-1993,20:00,1.6,R,mgm-3,56,R,ugm-3 (GRAV EQ),136,R,ugm-3,86,R,ugm-3,294,R,ugm-3,6,R,ugm-3,32,R,ugm-3
08-01-1993,21:00,1.4,R,mgm-3,49,R,ugm-3 (GRAV EQ),115,R,ugm-3,84,R,ugm-3,260,R,ugm-3,6,R,ugm-3,24,R,ugm-3
08-01-1993,22:00,1.4,R,mgm-3,42,R,ugm-3 (GRAV EQ),109,R,ugm-3,80,R,ugm-3,246,R,ugm-3,6,R,ugm-3,32,R,ugm-3
08-01-1993,23:00,1.2,R,mgm-3,36,R,ugm-3 (GRAV EQ),76,R,ugm-3,78,R,ugm-3,195,R,ugm-3,4,R,ugm-3,32,R,ugm-3
08-01-1993,24:00,0.9,R,mgm-3,25,R,ugm-3 (GRAV EQ),33,R,ugm-3,65,R,ugm-3,115,R,ugm-3,8,R,ugm-3,16,R,ugm-3
09-01-1993,01:00,0.7,R,mgm-3,21,R,ugm-3 (GRAV EQ),11,R,ugm-3,55,R,ugm-3,73,R,ugm-3,20,R,ugm-3,13,R,ugm-3
09-01-1993,02:00,0.9,R,mgm-3,27,R,ugm-3 (GRAV EQ),8,R,ugm-3,48,R,ugm-3,59,R,ugm-3,20,R,ugm-3,13,R,ugm-3
09-01-1993,03:00,1.0,R,mgm-3,34,R,ugm-3 (GRAV EQ),8,R,ugm-3,44,R,ugm-3,55,R,ugm-3,20,R,ugm-3,11,R,ugm-3
09-01-1993,04:00,0.9,R,mgm-3,31,R,ugm-3 (GRAV EQ),4,R,ugm-3,34,R,ugm-3,40,R,ugm-3,24,R,ugm-3,8,R,ugm-3
09-01-1993,05:00,0.9,R,mgm-3,10,R,ugm-3 (GRAV EQ),1,R,ugm-3,25,R,ugm-3,27,R,ugm-3,36,R,ugm-3,5,R,ugm-3
09-01-1993,06:00,0.8,R,mgm-3,9,R,ugm-3 (GRAV EQ),1,R,ugm-3,25,R,ugm-3,27,R,ugm-3,48,R,ugm-3,8,R,ugm-3
09-01-1993,07:00,0.7,R,mgm-3,13,R,ugm-3 (GRAV EQ),1,R,ugm-3,32,R,ugm-3,34,R,ugm-3,48,R,ugm-3,8,R,ugm-3
09-01-1993,08:00,0.7,R,mgm-3,7,R,ugm-3 (GRAV EQ),4,R,ugm-3,40,R,ugm-3,46,R,ugm-3,38,R,ugm-3,8,R,ugm-3
09-01-1993,09:00,0.8,R,mgm-3,17,R,ugm-3 (GRAV EQ),10,R,ugm-3,50,R,ugm-3,65,R,ugm-3,26,R,ugm-3,11,R,ugm-3
09-01-1993,10:00,0.8,R,mgm-3,26,R,ugm-3 (GRAV EQ),9,R,ugm-3,50,R,ugm-3,63,R,ugm-3,28,R,ugm-3,11,R,ugm-3
09-01-1993,11:00,0.9,R,mgm-3,27,R,ugm-3 (GRAV EQ),13,R,ugm-3,57,R,ugm-3,76,R,ugm-3,24,R,ugm-3,8,R,ugm-3
09-01-1993,12:00,1.0,R,mgm-3,16,R,ugm-3 (GRAV EQ),14,R,ugm-3,50,R,ugm-3,71,R,ugm-3,26,R,ugm-3,8,R,ugm-3
09-01-1993,13:00,0.9,R,mgm-3,20,R,ugm-3 (GRAV EQ),14,R,ugm-3,57,R,ugm-3,78,R,ugm-3,22,R,ugm-3,11,R,ugm-3
09-01-1993,14:00,1.0,R,mgm-3,23,R,ugm-3 (GRAV EQ),16,R,ugm-3,65,R,ugm-3,90,R,ugm-3,16,R,ugm-3,11,R,ugm-3
09-01-1993,15:00,1.2,R,mgm-3,23,R,ugm-3 (GRAV EQ),23,R,ugm-3,65,R,ugm-3,99,R,ugm-3,14,R,ugm-3,11,R,ugm-3
09-01-1993,16:00,1.2,R,mgm-3,18,R,ugm-3 (GRAV EQ),28,R,ugm-3,71,R,ugm-3,113,R,ugm-3,10,R,ugm-3,21,R,ugm-3
09-01-1993,17:00,1.0,R,mgm-3,20,R,ugm-3 (GRAV EQ),28,R,ugm-3,74,R,ugm-3,117,R,ugm-3,8,R,ugm-3,24,R,ugm-3
09-01-1993,18:00,1.0,R,mgm-3,22,R,ugm-3 (GRAV EQ),23,R,ugm-3,73,R,ugm-3,107,R,ugm-3,8,R,ugm-3,16,R,ugm-3
09-01-1993,19:00,1.0,R,mgm-3,25,R,ugm-3 (GRAV EQ),41,R,ugm-3,80,R,ugm-3,143,R,ugm-3,6,R,ugm-3,21,R,ugm-3
09-01-1993,20:00,1.2,R,mgm-3,31,R,ugm-3 (GRAV EQ),58,R,ugm-3,76,R,ugm-3,164,R,ugm-3,4,R,ugm-3,16,R,ugm-3
09-01-1993,21:00,1.0,R,mgm-3,23,R,ugm-3 (GRAV EQ),40,R,ugm-3,74,R,ugm-3,136,R,ugm-3,6,R,ugm-3,11,R,ugm-3
09-01-1993,22:00,1.0,R,mgm-3,23,R,ugm-3 (GRAV EQ),16,R,ugm-3,63,R,ugm-3,88,R,ugm-3,8,R,ugm-3,11,R,ugm-3
09-01-1993,23:00,1.3,R,mgm-3,33,R,ugm-3 (GRAV EQ),23,R,ugm-3,61,R,ugm-3,96,R,ugm-3,10,R,ugm-3,11,R,ugm-3
09-01-1993,24:00,1.6,R,mgm-3,33,R,ugm-3 (GRAV EQ),33,R,ugm-3,65,R,ugm-3,115,R,ugm-3,6,R,ugm-3,11,R,ugm-3
10-01-1993,01:00,1.6,R,mgm-3,29,R,ugm-3 (GRAV EQ),25,R,ugm-3,59,R,ugm-3,97,R,ugm-3,8,R,ugm-3,16,R,ugm-3
10-01-1993,02:00,1.0,R,mgm-3,23,R,ugm-3 (GRAV EQ),14,R,ugm-3,53,R,ugm-3,74,R,ugm-3,16,R,ugm-3,11,R,ugm-3
10-01-1993,03:00,0.9,R,mgm-3,16,R,ugm-3 (GRAV EQ),8,R,ugm-3,46,R,ugm-3,57,R,ugm-3,22,R,ugm-3,8,R,ugm-3
10-01-1993,04:00,0.6,R,mgm-3,8,R,ugm-3 (GRAV EQ),3,R,ugm-3,38,R,ugm-3,42,R,ugm-3,32,R,ugm-3,5,R,ugm-3
10-01-1993,05:00,0.5,R,mgm-3,5,R,ugm-3 (GRAV EQ),0,R,ugm-3,27,R,ugm-3,27,R,ugm-3,46,R,ugm-3,5,R,ugm-3
10-01-1993,06:00,0.3,R,mgm-3,4,R,ugm-3 (GRAV EQ),0,R,ugm-3,21,R,ugm-3,21,R,ugm-3,52,R,ugm-3,5,R,ugm-3
10-01-1993,07:00,0.2,R,mgm-3,7,R,ugm-3 (GRAV EQ),1,R,ugm-3,21,R,ugm-3,23,R,ugm-3,52,R,ugm-3,3,R,ugm-3
10-01-1993,08:00,0.2,R,mgm-3,10,R,ugm-3 (GRAV EQ),1,R,ugm-3,27,R,ugm-3,29,R,ugm-3,52,R,ugm-3,3,R,ugm-3
10-01-1993,09:00,0.2,R,mgm-3,17,R,ugm-3 (GRAV EQ),3,R,ugm-3,31,R,ugm-3,34,R,ugm-3,48,R,ugm-3,3,R,ugm-3
10-01-1993,10:00,0.2,R,mgm-3,16,R,ugm-3 (GRAV EQ),4,R,ugm-3,34,R,ugm-3,40,R,ugm-3,42,R,ugm-3,3,R,ugm-3
10-01-1993,11:00,0.2,R,mgm-3,16,R,ugm-3 (GRAV EQ),4,R,ugm-3,42,R,ugm-3,48,R,ugm-3,40,R,ugm-3,5,R,ugm-3
10-01-1993,12:00,0.2,R,mgm-3,10,R,ugm-3 (GRAV EQ),6,R,ugm-3,38,R,ugm-3,48,R,ugm-3,44,R,ugm-3,5,R,ugm-3
10-01-1993,13:00,0.3,R,mgm-3,7,R,ugm-3 (GRAV EQ),5,R,ugm-3,34,R,ugm-3,42,R,ugm-3,48,R,ugm-3,3,R,ugm-3
10-01-1993,14:00,0.5,R,mgm-3,14,R,ugm-3 (GRAV EQ),5,R,ugm-3,38,R,ugm-3,46,R,ugm-3,42,R,ugm-3,5,R,ugm-3
10-01-1993,15:00,0.5,R,mgm-3,13,R,ugm-3 (GRAV EQ),6,R,ugm-3,42,R,ugm-3,52,R,ugm-3,38,R,ugm-3,5,R,ugm-3
10-01-1993,16:00,0.5,R,mgm-3,14,R,ugm-3 (GRAV EQ),9,R,ugm-3,48,R,ugm-3,61,R,ugm-3,30,R,ugm-3,5,R,ugm-3
10-01-1993,17:00,0.3,R,mgm-3,14,R,ugm-3 (GRAV EQ),9,R,ugm-3,52,R,ugm-3,65,R,ugm-3,28,R,ugm-3,5,R,ugm-3
10-01-1993,18:00,0.5,R,mgm-3,17,R,ugm-3 (GRAV EQ),14,R,ugm-3,55,R,ugm-3,76,R,ugm-3,18,R,ugm-3,5,R,ugm-3
10-01-1993,19:00,0.3,R,mgm-3,30,R,ugm-3 (GRAV EQ),11,R,ugm-3,53,R,ugm-3,71,R,ugm-3,20,R,ugm-3,5,R,ugm-3
10-01-1993,20:00,0.3,R,mgm-3,36,R,ugm-3 (GRAV EQ),5,R,ugm-3,48,R,ugm-3,55,R,ugm-3,28,R,ugm-3,8,R,ugm-3
10-01-1993,21:00,0.5,R,mgm-3,42,R,ugm-3 (GRAV EQ),4,R,ugm-3,40,R,ugm-3,46,R,ugm-3,36,R,ugm-3,8,R,ugm-3
10-01-1993,22:00,0.2,R,mgm-3,46,R,ugm-3 (GRAV EQ),3,R,ugm-3,36,R,ugm-3,40,R,ugm-3,40,R,ugm-3,5,R,ugm-3
10-01-1993,23:00,0.2,R,mgm-3,36,R,ugm-3 (GRAV EQ),3,R,ugm-3,42,R,ugm-3,46,R,ugm-3,32,R,ugm-3,5,R,ugm-3
10-01-1993,24:00,0.2,R,mgm-3,13,R,ugm-3 (GRAV EQ),3,R,ugm-3,40,R,ugm-3,44,R,ugm-3,36,R,ugm-3,8,R,ugm-3
11-01-1993,01:00,0.1,R,mgm-3,18,R,ugm-3 (GRAV EQ),1,R,ugm-3,34,R,ugm-3,36,R,ugm-3,40,R,ugm-3,5,R,ugm-3
11-01-1993,02:00,0.6,R,mgm-3,20,R,ugm-3 (GRAV EQ),1,R,ugm-3,29,R,ugm-3,31,R,ugm-3,46,R,ugm-3,8,R,ugm-3
11-01-1993,03:00,0.6,R,mgm-3,17,R,ugm-3 (GRAV EQ),0,R,ugm-3,23,R,ugm-3,23,R,ugm-3,54,R,ugm-3,5,R,ugm-3
11-01-1993,04:00,0.6,R,mgm-3,21,R,ugm-3 (GRAV EQ),0,R,ugm-3,17,R,ugm-3,17,R,ugm-3,60,R,ugm-3,5,R,ugm-3
11-01-1993,05:00,0.7,R,mgm-3,18,R,ugm-3 (GRAV EQ),1,R,ugm-3,15,R,ugm-3,17,R,ugm-3,60,R,ugm-3,5,R,ugm-3
11-01-1993,06:00,0.8,R,mgm-3,16,R,ugm-3 (GRAV EQ),1,R,ugm-3,21,R,ugm-3,23,R,ugm-3,58,R,ugm-3,5,R,ugm-3
11-01-1993,07:00,0.7,R,mgm-3,21,R,ugm-3 (GRAV EQ),4,R,ugm-3,32,R,ugm-3,38,R,ugm-3,46,R,ugm-3,5,R,ugm-3
11-01-1993,08:00,1.0,R,mgm-3,22,R,ugm-3 (GRAV EQ),9,R,ugm-3,48,R,ugm-3,61,R,ugm-3,36,R,ugm-3,11,R,ugm-3
11-01-1993,09:00,1.3,R,mgm-3,20,R,ugm-3 (GRAV EQ),23,R,ugm-3,69,R,ugm-3,103,R,ugm-3,18,R,ugm-3,11,R,ugm-3
11-01-1993,10:00,1.3,R,mgm-3,22,R,ugm-3 (GRAV EQ),26,R,ugm-3,73,R,ugm-3,113,R,ugm-3,18,R,ugm-3,13,R,ugm-3
11-01-1993,11:00,1.0,R,mgm-3,30,R,ugm-3 (GRAV EQ),18,R,ugm-3,59,R,ugm-3,86,R,ugm-3,24,R,ugm-3,21,R,ugm-3
11-01-1993,12:00,1.2,R,mgm-3,21,R,ugm-3 (GRAV EQ),30,R,ugm-3,69,R,ugm-3,115,R,ugm-3,18,R,ugm-3,19,R,ugm-3
11-01-1993,13:00,0.9,R,mgm-3,16,R,ugm-3 (GRAV EQ),18,R,ugm-3,53,R,ugm-3,80,R,ugm-3,32,R,ugm-3,16,R,ugm-3
11-01-1993,14:00,0.9,R,mgm-3,27,R,ugm-3 (GRAV EQ),19,R,ugm-3,57,R,ugm-3,86,R,ugm-3,28,R,ugm-3,13,R,ugm-3
11-01-1993,15:00,0.8,R,mgm-3,27,R,ugm-3 (GRAV EQ),16,R,ugm-3,57,R,ugm-3,82,R,ugm-3,28,R,ugm-3,11,R,ugm-3
11-01-1993,16:00,0.9,R,mgm-3,26,R,ugm-3 (GRAV EQ),15,R,ugm-3,55,R,ugm-3,78,R,ugm-3,28,R,ugm-3,11,R,ugm-3
11-01-1993,17:00,0.9,R,mgm-3,25,R,ugm-3 (GRAV EQ),20,R,ugm-3,73,R,ugm-3,103,R,ugm-3,18,R,ugm-3,11,R,ugm-3
11-01-1993,18:00,1.0,R,mgm-3,26,R,ugm-3 (GRAV EQ),33,R,ugm-3,78,R,ugm-3,128,R,ugm-3,8,R,ugm-3,27,R,ugm-3
11-01-1993,19:00,1.2,R,mgm-3,26,R,ugm-3 (GRAV EQ),33,R,ugm-3,74,R,ugm-3,124,R,ugm-3,8,R,ugm-3,51,R,ugm-3
11-01-1993,20:00,1.5,R,mgm-3,29,R,ugm-3 (GRAV EQ),59,R,ugm-3,78,R,ugm-3,168,R,ugm-3,4,R,ugm-3,21,R,ugm-3
11-01-1993,21:00,0.9,R,mgm-3,21,R,ugm-3 (GRAV EQ),20,R,ugm-3,63,R,ugm-3,94,R,ugm-3,14,R,ugm-3,11,R,ugm-3
11-01-1993,22:00,0.8,R,mgm-3,17,R,ugm-3 (GRAV EQ),8,R,ugm-3,52,R,ugm-3,63,R,ugm-3,26,R,ugm-3,8,R,ugm-3
11-01-1993,23:00,0.7,R,mgm-3,17,R,ugm-3 (GRAV EQ),6,R,ugm-3,48,R,ugm-3,57,R,ugm-3,28,R,ugm-3,8,R,ugm-3
11-01-1993,24:00,0.8,R,mgm-3,18,R,ugm-3 (GRAV EQ),3,R,ugm-3,38,R,ugm-3,42,R,ugm-3,36,R,ugm-3,5,R,ugm-3
12-01-1993,01:00,0.6,R,mgm-3,9,R,ugm-3 (GRAV EQ),3,R,ugm-3,38,R,ugm-3,42,R,ugm-3,38,R,ugm-3,8,R,ugm-3
12-01-1993,02:00,0.6,R,mgm-3,10,R,ugm-3 (GRAV EQ),0,R,ugm-3,31,R,ugm-3,31,R,ugm-3,46,R,ugm-3,5,R,ugm-3
12-01-1993,03:00,0.6,R,mgm-3,9,R,ugm-3 (GRAV EQ),0,R,ugm-3,29,R,ugm-3,29,R,ugm-3,48,R,ugm-3,5,R,ugm-3
12-01-1993,04:00,0.6,R,mgm-3,10,R,ugm-3 (GRAV EQ),0,R,ugm-3,25,R,ugm-3,25,R,ugm-3,46,R,ugm-3,5,R,ugm-3
12-01-1993,05:00,0.7,R,mgm-3,5,R,ugm-3 (GRAV EQ),1,R,ugm-3,23,R,ugm-3,25,R,ugm-3,46,R,ugm-3,3,R,ugm-3
12-01-1993,06:00,0.9,R,mgm-3,12,R,ugm-3 (GRAV EQ),3,R,ugm-3,31,R,ugm-3,34,R,ugm-3,38,R,ugm-3,8,R,ugm-3
12-01-1993,07:00,0.7,R,mgm-3,16,R,ugm-3 (GRAV EQ),8,R,ugm-3,46,R,ugm-3,57,R,ugm-3,24,R,ugm-3,11,R,ugm-3